星链-30838 (STARLINK-30838 )

导读

STARLINK-30838是美国SpaceX公司星链星座的成员,于2023年11月3日发射入轨,属于星链第二代卫星组网批次。星链星座旨在打造全球低轨宽带互联网,为基础设施匮乏地区提供高速低延迟网络服务。该卫星配备氪离子推进系统与激光星间链路,运行在近地轨道,具备自主轨道维持和避碰能力,设计寿命5-7年,退役后将主动离轨,在大气层中完全烧毁。

基本信息
目录编号:
58211
目录名称:
STARLINK-30838
国际标识:
2023-170F
轨道中心:
EARTH
卫星名称:
星链-30838
卫星全名:
星链-30838 (STARLINK-30838 )
卫星状态:
在轨 (已飞行957 天)
发射日期:
2023-11-03 UTC
国别 :
美国 (US)
星等 :
--
轨道信息
数据来源 国际轨道数据 AOE轨道数据
星历时间 2026-06-17T03:53:55+0800
17小时前
查看轨道信息
2026-06-17T02:00:00+0800
19小时前
查看轨道信息
半长轴 6861.189km 6861.197km
偏心率 0.0001045 0.000138
轨道倾角 43.010° 43.014°
近地点辐角 260.463° 237.727°
升交点赤经 354.163° 354.616°
平近点角 99.610° 46.766°
近地点 482.335km 482.113km
远地点 483.769km 484.007km
周期 94.267分钟 94.267分钟
每日圈数 15.275791 15.275765
详细信息
固有亮度:
5
最大亮度:
0.3
卫星平台:
Starlink v2.0 mini
覆盖范围:
全球
运营商:
太空探索技术公司
运营商所在国:
美国
制造商(研发单位):
太空探索技术公司
制造商所在国:
美国
使用方式:
暂无
卫星简介
星链(Starlink)计划是由太空探索技术公司(SpaceX)提出的一个巨型低轨卫星互联网星座项目,计划在2019年至2024年间在太空搭建由约1.2万颗卫星组成的“星链”网络,其中1584颗将部署在地球上空550千米处的近地轨道,并从2020年开始工作。该卫星仍在工作。
2D轨道图
3D轨道图
轨道高度分析图
轨道倾角分析图
轨道综合分析图
查看轨道综合分析图